Location: Chippewa Lake
(41.0698°N, 81.9010°W)
Time: 22:01:04
(UTC+00:00)

SeaSat 1 - Pass Details

Date: 09 May 2021
Orbit: 744 x 747 km, 108.0° (Epoch: 17 June)

Event Time Altitude Azimuth Distance (km) Brightness Sun altitude
Rises 04:33:21 0° 36° (NE) 3,197 6.2 -30.3°
Reaches altitude 10° 04:35:52 10° 47° (NE) 2,269 5.2 -30.5°
Enters shadow 04:37:37 19° 61° (ENE) 1,709 4.4 -30.5°
